Hourly Weather Almeria

Today, 25 February, Thursday

Time Temperature Precipitation Wind Pressure Humidity
00:00 +12°C° 0 mm 5 mps 770 mmHg 73%
01:00 +12°C° 0 mm 5 mps 770 mmHg 73%
02:00 +12°C° 0 mm 5 mps 769 mmHg 73%
03:00 +12°C° 0 mm 5 mps 769 mmHg 74%
04:00 +12°C° 0 mm 5 mps 769 mmHg 75%
05:00 +12°C° 0 mm 5 mps 768 mmHg 77%
06:00 +10°C° 0 mm 5 mps 768 mmHg 79%
07:00 +13°C° 0 mm 5 mps 768 mmHg 75%
08:00 +14°C° 0 mm 5 mps 768 mmHg 72%
09:00 +15°C° 0 mm 5 mps 769 mmHg 69%
10:00 +16°C° 0 mm 6 mps 768 mmHg 66%
11:00 +17°C° 0 mm 6 mps 768 mmHg 62%
12:00 +19°C° 0 mm 6 mps 768 mmHg 59%
13:00 +18°C° 0 mm 7 mps 767 mmHg 59%
14:00 +18°C° 0 mm 7 mps 767 mmHg 58%
15:00 +18°C° 0 mm 7 mps 767 mmHg 58%
16:00 +17°C° 0 mm 7 mps 767 mmHg 64%
17:00 +16°C° 0 mm 7 mps 767 mmHg 70%
18:00 +15°C° 0 mm 7 mps 767 mmHg 76%
19:00 +15°C° 0 mm 6 mps 767 mmHg 78%
20:00 +15°C° 0 mm 6 mps 767 mmHg 80%
21:00 +14°C° 0 mm 6 mps 768 mmHg 82%
22:00 +14°C° 0 mm 6 mps 768 mmHg 80%
23:00 +14°C° 0 mm 6 mps 768 mmHg 78%

Tomorrow, 26 February, Friday

Time Temperature Precipitation Wind Pressure Humidity
00:00 +14°C° 0 mm 6 mps 768 mmHg 76%
01:00 +14°C° 0 mm 6 mps 767 mmHg 73%
02:00 +13°C° 0 mm 6 mps 767 mmHg 71%
03:00 +13°C° 0 mm 6 mps 767 mmHg 69%
04:00 +13°C° 0 mm 6 mps 767 mmHg 68%
05:00 +13°C° 0 mm 6 mps 767 mmHg 67%
06:00 +13°C° 0 mm 6 mps 767 mmHg 66%
07:00 +14°C° 0 mm 7 mps 767 mmHg 63%
08:00 +15°C° 0 mm 7 mps 768 mmHg 60%
09:00 +16°C° 0 mm 7 mps 768 mmHg 57%
10:00 +16°C° 0 mm 8 mps 768 mmHg 56%
11:00 +17°C° 0 mm 8 mps 768 mmHg 54%
12:00 +18°C° 0 mm 9 mps 768 mmHg 52%
13:00 +18°C° 0 mm 9 mps 768 mmHg 53%
14:00 +18°C° 0 mm 9 mps 767 mmHg 54%
15:00 +18°C° 0 mm 8 mps 767 mmHg 55%
16:00 +17°C° 0 mm 8 mps 767 mmHg 60%
17:00 +16°C° 0 mm 8 mps 767 mmHg 66%
18:00 +15°C° 0 mm 7 mps 767 mmHg 72%
19:00 +15°C° 0 mm 7 mps 767 mmHg 73%
20:00 +15°C° 0 mm 7 mps 768 mmHg 73%
21:00 +14°C° 0 mm 7 mps 768 mmHg 74%
22:00 +14°C° 0 mm 6 mps 768 mmHg 71%
23:00 +14°C° 0 mm 6 mps 768 mmHg 67%

Day after tomorrow, 27 February, Saturday

Time Temperature Precipitation Wind Pressure Humidity
00:00 +14°C° 0 mm 6 mps 768 mmHg 63%
01:00 +13°C° 0 mm 6 mps 767 mmHg 64%
02:00 +13°C° 0 mm 6 mps 767 mmHg 64%
03:00 +13°C° 0 mm 6 mps 767 mmHg 65%
04:00 +11°C° 0 mm 6 mps 767 mmHg 65%
05:00 +11°C° 0 mm 6 mps 767 mmHg 64%
06:00 +11°C° 0 mm 6 mps 766 mmHg 64%
07:00 +13°C° 0 mm 6 mps 767 mmHg 60%
08:00 +14°C° 0 mm 7 mps 767 mmHg 56%
09:00 +15°C° 0 mm 7 mps 767 mmHg 52%
10:00 +16°C° 0 mm 8 mps 767 mmHg 51%
11:00 +16°C° 0 mm 8 mps 767 mmHg 50%
12:00 +17°C° 0 mm 8 mps 767 mmHg 49%
13:00 +17°C° 0 mm 9 mps 766 mmHg 51%
14:00 +17°C° 0 mm 9 mps 766 mmHg 53%
15:00 +16°C° 0 mm 9 mps 765 mmHg 55%
16:00 +16°C° 0 mm 9 mps 765 mmHg 61%
17:00 +15°C° 0 mm 8 mps 765 mmHg 67%
18:00 +13°C° 0 mm 8 mps 765 mmHg 73%
19:00 +14°C° 0 mm 7 mps 765 mmHg 74%
20:00 +12°C° 0 mm 7 mps 766 mmHg 76%
21:00 +12°C° 0 mm 7 mps 766 mmHg 78%
22:00 +11°C° 0 mm 7 mps 766 mmHg 77%
23:00 +11°C° 0 mm 7 mps 766 mmHg 77%

28 February, Sunday

Time Temperature Precipitation Wind Pressure Humidity
00:00 +11°C° 0 mm 8 mps 765 mmHg 77%
01:00 +11°C° 0 mm 8 mps 765 mmHg 79%
02:00 +11°C° 0 mm 8 mps 765 mmHg 81%
03:00 +11°C° 0 mm 8 mps 765 mmHg 83%
04:00 +11°C° 0 mm 8 mps 765 mmHg 83%
05:00 +11°C° 0 mm 8 mps 765 mmHg 82%
06:00 +11°C° 0 mm 8 mps 764 mmHg 82%
07:00 +11°C° 0 mm 8 mps 765 mmHg 79%
08:00 +12°C° 0 mm 8 mps 765 mmHg 76%
09:00 +13°C° 0 mm 8 mps 765 mmHg 73%
10:00 +13°C° 0 mm 9 mps 765 mmHg 70%
11:00 +15°C° 0 mm 9 mps 764 mmHg 68%
12:00 +15°C° 0 mm 9 mps 764 mmHg 65%
13:00 +16°C° 0 mm 9 mps 764 mmHg 65%
14:00 +16°C° 0 mm 9 mps 763 mmHg 65%
15:00 +16°C° 0 mm 9 mps 762 mmHg 64%
16:00 +15°C° 0.1 mm 9 mps 762 mmHg 68%
17:00 +15°C° 0.1 mm 9 mps 762 mmHg 71%
18:00 +13°C° 0.1 mm 9 mps 762 mmHg 75%
19:00 +13°C° 0.1 mm 9 mps 762 mmHg 77%
20:00 +12°C° 0.1 mm 9 mps 763 mmHg 78%
21:00 +12°C° 0.1 mm 9 mps 763 mmHg 80%
22:00 +12°C° 0.3 mm 9 mps 763 mmHg 80%
23:00 +12°C° 0.3 mm 9 mps 763 mmHg 80%

1 March, Monday

Time Temperature Precipitation Wind Pressure Humidity
00:00 +12°C° 0.3 mm 9 mps 763 mmHg 80%
01:00 +12°C° 0.2 mm 8 mps 762 mmHg 80%
02:00 +12°C° 0.2 mm 8 mps 762 mmHg 80%
03:00 +12°C° 0.2 mm 7 mps 762 mmHg 81%
04:00 +12°C° 0.2 mm 7 mps 762 mmHg 81%
05:00 +12°C° 0.2 mm 7 mps 762 mmHg 82%
06:00 +12°C° 0.2 mm 7 mps 762 mmHg 82%
07:00 +12°C° 0.1 mm 7 mps 762 mmHg 81%
08:00 +13°C° 0.1 mm 8 mps 762 mmHg 79%
09:00 +13°C° 0.1 mm 8 mps 763 mmHg 78%
10:00 +15°C° 0 mm 8 mps 763 mmHg 74%
11:00 +16°C° 0 mm 8 mps 763 mmHg 70%
12:00 +16°C° 0 mm 8 mps 763 mmHg 66%
13:00 +17°C° 0 mm 8 mps 762 mmHg 64%
14:00 +17°C° 0 mm 8 mps 762 mmHg 62%
15:00 +17°C° 0 mm 8 mps 762 mmHg 61%
16:00 +17°C° 0 mm 8 mps 762 mmHg 65%
17:00 +16°C° 0 mm 7 mps 762 mmHg 69%
18:00 +15°C° 0 mm 7 mps 762 mmHg 74%
19:00 +15°C° 0 mm 6 mps 763 mmHg 72%
20:00 +15°C° 0 mm 6 mps 764 mmHg 70%
21:00 +15°C° 0 mm 5 mps 764 mmHg 68%
22:00 +14°C° 0 mm 5 mps 764 mmHg 67%
23:00 +14°C° 0 mm 5 mps 764 mmHg 67%

2 March, Tuesday

Time Temperature Precipitation Wind Pressure Humidity
00:00 +14°C° 0 mm 4 mps 765 mmHg 66%
01:00 +14°C° 0 mm 4 mps 764 mmHg 67%
02:00 +13°C° 0 mm 3 mps 764 mmHg 68%
03:00 +14°C° 0 mm 2 mps 764 mmHg 69%
04:00 +14°C° 0 mm 2 mps 764 mmHg 71%
05:00 +13°C° 0 mm 2 mps 765 mmHg 72%
06:00 +13°C° 0 mm 2 mps 765 mmHg 74%
07:00 +14°C° 0 mm 2 mps 765 mmHg 70%
08:00 +16°C° 0 mm 3 mps 766 mmHg 65%
09:00 +17°C° 0 mm 3 mps 766 mmHg 61%
10:00 +17°C° 0 mm 3 mps 766 mmHg 59%
11:00 +18°C° 0 mm 4 mps 767 mmHg 57%
12:00 +19°C° 0 mm 4 mps 767 mmHg 54%
13:00 +19°C° 0 mm 5 mps 766 mmHg 55%
14:00 +19°C° 0 mm 5 mps 766 mmHg 55%
15:00 +19°C° 0 mm 5 mps 766 mmHg 55%
16:00 +17°C° 0 mm 5 mps 766 mmHg 61%
17:00 +16°C° 0 mm 5 mps 767 mmHg 67%
18:00 +15°C° 0 mm 5 mps 767 mmHg 72%
19:00 +15°C° 0 mm 5 mps 767 mmHg 76%
20:00 +14°C° 0 mm 5 mps 768 mmHg 79%
21:00 +14°C° 0 mm 5 mps 768 mmHg 82%
22:00 +13°C° 0 mm 5 mps 768 mmHg 81%
23:00 +13°C° 0 mm 5 mps 769 mmHg 79%
Show more

We Need Your Consent

Meteoprog and our Service Providers may store and access personal data such as cookies, device identifiers or other similar technologies on your device and process such data to personalise content and ads, as well as provide social media features and to analyse the traffic.

  • Store and/or access information on your device

    Cookies, device identifiers or other information can be stored or accessed on your device for the purposes indicated above.

  • Personalised ads and content, ad and content measurement, audience insights, and products development

    Ads and content can be personalised based on a profile. More data can be added to better personalise ads and content. Ad and content performance can be measured. Insights about the audience who saw the ads and content can be derived. Such data can be used to develop or improve user’s experience, systems and software.

By clicking ‘I Agree’ you will allow the use of indicated cookies, device identifiers, web beacons or other similar technologies. Your settings can be changed in the browser on your device.

For certain purposes, legitimate interests may be relied on, rather than consent. You can read more about this in our Privacy and Cookie Policy.